Location: Sternwarte_Laufen
(47.9344°N, 12.9346°E)
Time: 15:16:36
(UTC+02:00)

ISS - Pass Details

Date: 30 March 2017
Orbit: 399 x 409 km, 51.6° (Epoch: 29 March)

Event Time Altitude Azimuth Distance (km) Brightness Sun altitude
Rises 20:48:01 0° 238° (WSW) 2,304 0.6 -12.6°
Reaches altitude 10° 20:50:05 10° 235° (SW) 1,450 -0.6 -12.9°
Maximum altitude 20:53:19 67° 152° (SSE) 440 -3.9 -13.4°
Enters shadow 20:55:19 21° 74° (ENE) 967 -2.4 -13.7°
